Powrót do katalogu

COSMOS 1275 DEB

AktywnyPO
NORAD 42200·DEBRIS·🇷🇺 Russia

Wystrzelony Jun 4, 1981 z Plesetsk Cosmodrome

Loading…

Następne Przeloty (najbliższe 24 godziny)

TLE

ŚwieżeSource: Space-Track

Epoka: Sep 13, 2026, 05:00 UTC

1 42200U 81053TQ  26256.20857876  .00001879  00000-0  10307-2 0  9997
2 42200  82.9805  61.1264 0069799 257.0771 102.2603 14.10154383654145

Śledź COSMOS 1275 DEB w czasie rzeczywistym z AllMySat

Download on the App Store